Location: Ferma
(41.9500°N, 44.5167°E)
Time: 19:16:04
(UTC+00:00)

COSMOS 2428 - Pass Details

Date: 24 October 2021
Orbit: 845 x 857 km, 70.9° (Epoch: 02 December)

Event Time Altitude Azimuth Distance (km) Brightness Sun altitude
Rises 15:58:48 0° 176° (S) 3,388 5.8 -21.5°
Reaches altitude 10° 16:01:26 10° 167° (SSE) 2,457 4.9 -21.9°
Enters shadow 16:02:51 17° 159° (SSE) 2,007 4.4 -22.2°
